Weather History for Madison, WI

Change the Weather History Date:

Sunday, January 13, 2013

  Actual Average Record
Temperature  
Mean Temperature 17 °F 18 °F  
Max Temperature 22 °F 26 °F 53 °F (1961)
Min Temperature 12 °F 11 °F -22 °F (1916)
Degree Days  
Heating Degree Days 48 47  
Month to date heating degree days 530 600  
Since 1 July heating degree days 3125 3479  
Cooling Degree Days 0 0  
Month to date cooling degree days 0 0  
Year to date cooling degree days 0 0  
Moisture  
Dew Point 8 °F    
Average Humidity 69    
Maximum Humidity 77    
Minimum Humidity 61    
Precipitation  
Precipitation T in 0.04 in 1.21 in (1910)
Month to date precipitation 0.28 0.53  
Year to date precipitation 0.28 0.53  
Snow  
Snow T in 0.40 in 7.30 in (1979)
Month to date snowfall T 5.3  
Since 1 July snowfall 23.5 22.9  
Snow Depth 2.00 in    
Sea Level Pressure  
Sea Level Pressure 30.06 in    
Wind  
Wind Speed 9 mph (NW)    
Max Wind Speed 16 mph    
Max Gust Speed 23 mph    
Visibility 10 miles    
Events Snow    
T = Trace of Precipitation, MM = Missing Value Source: NWS Daily Summary

Daily Weather History Graph

Daily Weather History Graph

Search for Another Location

Airport:

Trip Planner

Search our weather history database for the weather conditions in past years. The results will help you decide how hot, cold, wet, or windy it might be!

Date:

Astronomy

Jan. 13, 2013 Rise Set
Actual Time 7:27 AM CST 4:45 PM CST
Civil Twilight 6:55 AM CST 5:17 PM CST
Nautical Twilight 6:20 AM CST 5:52 PM CST
Astronomical Twilight 5:46 AM CST 6:26 PM CST
Moon 8:21 AM CST (1/13) 7:29 PM CST (1/13)
Length of Visible Light 10h 21m
Length of Day
9h 18m
Waxing Crescent, 5% of the Moon is Illuminated
Jan 13
Waxing Crescent
Jan 18
First Quarter
Jan 26
Full
Feb 3
Last Quarter
Feb 10
New

Hourly Weather History & Observations

Time (CST) Temp. Windchill Dew Point Humidity Pressure Visibility Wind Dir Wind Speed Gust Speed Precip Events Conditions
12:53 AM 21.9 °F 10.4 °F 12.9 °F 68% 29.97 in 9.0 mi NW 11.5 mph - 0.00 in Snow Light Snow
1:53 AM 21.0 °F 9.9 °F 12.9 °F 71% 29.97 in 9.0 mi NW 10.4 mph - 0.00 in Snow Light Snow
2:43 AM 19.4 °F 7.2 °F 12.2 °F 74% 29.94 in 9.0 mi North 11.5 mph - 0.00 in Snow Light Snow
2:53 AM 19.9 °F 7.9 °F 12.0 °F 71% 29.98 in 9.0 mi NNW 11.5 mph - 0.00 in   Mostly Cloudy
3:05 AM 19.4 °F 7.9 °F 12.2 °F 74% 29.94 in 10.0 mi North 10.4 mph - N/A   Overcast
3:28 AM 19.4 °F 11.5 °F 12.2 °F 74% 29.97 in 10.0 mi NW 5.8 mph - N/A   Overcast
3:48 AM 19.4 °F 8.6 °F 10.4 °F 68% 29.94 in 10.0 mi NNW 9.2 mph - N/A   Overcast
3:53 AM 19.9 °F 9.3 °F 10.9 °F 68% 29.98 in 10.0 mi NNW 9.2 mph - N/A   Overcast
4:40 AM 19.4 °F 7.9 °F 10.4 °F 68% 29.92 in 10.0 mi North 10.4 mph - N/A   Overcast
4:53 AM 19.0 °F 10.0 °F 10.9 °F 71% 29.98 in 10.0 mi North 6.9 mph - N/A   Overcast
5:53 AM 18.0 °F 8.7 °F 10.0 °F 71% 30.03 in 10.0 mi NNW 6.9 mph - N/A   Overcast
6:53 AM 17.1 °F 7.6 °F 9.0 °F 71% 30.03 in 10.0 mi NNW 6.9 mph - N/A   Overcast
7:30 AM 17.6 °F 7.3 °F 8.6 °F 68% 30.00 in 10.0 mi WNW 8.1 mph - N/A   Overcast
7:37 AM 17.6 °F 8.2 °F 8.6 °F 68% 30.01 in 10.0 mi NW 6.9 mph - N/A   Overcast
7:53 AM 17.1 °F 6.6 °F 9.0 °F 71% 30.05 in 10.0 mi NNW 8.1 mph - N/A   Overcast
8:43 AM 17.6 °F 6.4 °F 8.6 °F 68% 30.02 in 10.0 mi NW 9.2 mph - 0.00 in Snow Light Snow
8:53 AM 17.1 °F 5.8 °F 9.0 °F 71% 30.08 in 9.0 mi NW 9.2 mph - 0.00 in Snow Light Snow
9:53 AM 16.0 °F 5.3 °F 7.0 °F 68% 30.08 in 10.0 mi NW 8.1 mph - 0.00 in   Overcast
10:53 AM 16.0 °F 3.6 °F 7.0 °F 68% 30.05 in 10.0 mi NNW 10.4 mph - N/A   Overcast
11:43 AM 17.6 °F 6.4 °F 8.6 °F 68% 30.00 in 10.0 mi NW 9.2 mph - N/A   Mostly Cloudy
11:53 AM 17.1 °F 5.0 °F 8.1 °F 68% 30.05 in 10.0 mi NW 10.4 mph - N/A   Mostly Cloudy
12:53 PM 19.0 °F 11.1 °F 8.1 °F 62% 30.05 in 10.0 mi Variable 5.8 mph - 0.00 in   Mostly Cloudy
1:20 PM 19.4 °F 9.5 °F 8.6 °F 63% 29.99 in 10.0 mi WNW 8.1 mph - N/A   Scattered Clouds
1:53 PM 19.0 °F 9.0 °F 8.1 °F 62% 30.03 in 10.0 mi WNW 8.1 mph 17.3 mph N/A   Scattered Clouds
2:32 PM 19.4 °F 9.5 °F 8.6 °F 63% 30.00 in 10.0 mi WNW 8.1 mph 16.1 mph N/A   Mostly Cloudy
2:53 PM 18.0 °F 8.7 °F 7.0 °F 62% 30.06 in 10.0 mi WNW 6.9 mph - N/A   Mostly Cloudy
3:53 PM 18.0 °F 9.8 °F 7.0 °F 62% 30.08 in 10.0 mi WNW 5.8 mph - N/A   Mostly Cloudy
4:53 PM 16.0 °F 3.6 °F 5.0 °F 62% 30.11 in 10.0 mi NW 10.4 mph 18.4 mph N/A   Overcast
5:53 PM 15.1 °F 4.2 °F 5.0 °F 64% 30.15 in 10.0 mi WNW 8.1 mph 16.1 mph N/A   Overcast
6:53 PM 14.0 °F 1.2 °F 3.9 °F 64% 30.17 in 10.0 mi WNW 10.4 mph 19.6 mph 0.00 in Snow Light Snow
7:53 PM 12.9 °F 1.6 °F 3.0 °F 65% 30.19 in 9.0 mi WNW 8.1 mph - 0.00 in Snow Light Snow
8:53 PM 14.0 °F 2.0 °F 3.0 °F 62% 30.20 in 9.0 mi West 9.2 mph 19.6 mph 0.00 in Snow Light Snow
9:53 PM 14.0 °F 0.5 °F 3.0 °F 62% 30.22 in 9.0 mi West 11.5 mph 17.3 mph 0.00 in Snow Light Snow
10:53 PM 12.9 °F -0.9 °F 3.9 °F 67% 30.23 in 9.0 mi WNW 11.5 mph 17.3 mph 0.00 in Snow Light Snow
11:17 PM 12.2 °F 1.7 °F 3.2 °F 67% 30.18 in 9.0 mi WNW 6.9 mph - 0.00 in   Scattered Clouds
11:53 PM 12.9 °F 0.7 °F 3.9 °F 67% 30.25 in 10.0 mi WNW 9.2 mph - 0.00 in   Scattered Clouds